Goodland, KS

3:23 PM MST on February 07, 2016 (GMT -0700)
Renner-Goodland Municipal

Weather History for KGLD - February, 2014

Change the Weather History Date:

Thursday, February 13, 2014

  Actual Average Record
Temperature  
Mean Temperature 40 °F 32 °F  
Max Temperature 52 °F 45 °F 77 °F (1954)
Min Temperature 28 °F 19 °F -11 °F (1948)
Degree Days  
Heating Degree Days 25 33  
Month to date heating degree days 652 447  
Since 1 July heating degree days 4095 3950  
Cooling Degree Days 0 0  
Month to date cooling degree days 0 0  
Year to date cooling degree days 0 0  
Moisture  
Dew Point 30 °F    
Average Humidity 61    
Maximum Humidity 78    
Minimum Humidity 44    
Precipitation  
Precipitation 0.00 in 0.01 in 0.62 in (1908)
Month to date precipitation 0.22 0.20  
Year to date precipitation 0.79 0.58  
Snow  
Snow 0.00 in 0.20 in - ()
Month to date snowfall 5.8 2.8  
Since 1 July snowfall 22.2 21.4  
Snow Depth 3.00 in    
Sea Level Pressure  
Sea Level Pressure 29.84 in    
Wind  
Wind Speed 12 mph (West)    
Max Wind Speed 21 mph    
Max Gust Speed 26 mph    
Visibility 10 miles    
Events      
T = Trace of Precipitation, MM = Missing Value Source: NWS Daily Summary

Daily Weather History Graph

Daily Weather History Graph

Search for Another Location

Airport or City:

Trip Planner

Search our weather history database for the weather conditions in past years. The results will help you decide how hot, cold, wet, or windy it might be!

Date:

Astronomy

Feb. 13, 2014 Rise Set
Actual Time 6:41 AM MST 5:21 PM MST
Civil Twilight 6:13 AM MST 5:49 PM MST
Nautical Twilight 5:42 AM MST 6:20 PM MST
Astronomical Twilight 5:10 AM MST 6:51 PM MST
Moon 4:31 PM MST (2/13) 5:35 AM MST (2/13)
Length of Visible Light 11h 35m
Length of Day
10h 40m
Waxing Gibbous, 99% of the Moon is Illuminated
Feb 13
Waxing Gibbous
Feb 14
Full
Feb 22
Last Quarter
Mar 1
New
Mar 8
First Quarter

Hourly Weather History & Observations

Time (MST) Temp. Windchill Dew Point Humidity Pressure Visibility Wind Dir Wind Speed Gust Speed Precip Events Conditions
12:53 AM 33.1 °F 21.5 °F 24.1 °F 70% 29.83 in 10.0 mi West 19.6 mph - N/A   Clear
1:53 AM 33.1 °F 22.6 °F 24.1 °F 70% 29.85 in 10.0 mi West 16.1 mph - N/A   Clear
2:53 AM 33.1 °F 22.6 °F 24.1 °F 70% 29.86 in 10.0 mi West 16.1 mph - N/A   Clear
3:53 AM 34.0 °F 23.0 °F 25.0 °F 70% 29.87 in 10.0 mi WNW 18.4 mph - N/A   Clear
4:53 AM 33.1 °F 23.0 °F 25.0 °F 72% 29.89 in 10.0 mi WNW 15.0 mph - N/A   Clear
5:53 AM 32.0 °F 23.6 °F 25.0 °F 75% 29.91 in 10.0 mi WNW 10.4 mph - N/A   Clear
6:53 AM 28.9 °F 21.9 °F 23.0 °F 78% 29.95 in 10.0 mi WNW 6.9 mph - N/A   Clear
7:53 AM 34.0 °F 28.0 °F 26.1 °F 73% 29.96 in 10.0 mi West 6.9 mph - N/A   Clear
8:53 AM 37.9 °F 32.7 °F 28.0 °F 68% 29.96 in 10.0 mi West 6.9 mph - N/A   Clear
9:53 AM 42.1 °F 39.2 °F 30.0 °F 62% 29.94 in 10.0 mi West 4.6 mph - N/A   Clear
10:53 AM 46.0 °F 41.4 °F 30.9 °F 56% 29.92 in 10.0 mi West 9.2 mph - N/A   Clear
11:53 AM 50.0 °F - 32.0 °F 50% 29.88 in 10.0 mi WNW 5.8 mph - N/A   Clear
12:53 PM 52.0 °F - 30.9 °F 45% 29.84 in 10.0 mi West 4.6 mph - N/A   Clear
1:53 PM 52.0 °F - 32.0 °F 47% 29.81 in 10.0 mi SSW 10.4 mph - N/A   Clear
2:53 PM 52.0 °F - 34.0 °F 50% 29.78 in 10.0 mi SW 11.5 mph - N/A   Clear
3:53 PM 50.0 °F - 34.0 °F 54% 29.77 in 10.0 mi SSW 9.2 mph - N/A   Clear
4:53 PM 46.9 °F - 36.0 °F 66% 29.78 in 10.0 mi SW 9.2 mph - N/A   Clear
5:53 PM 46.0 °F 40.2 °F 34.0 °F 63% 29.77 in 10.0 mi SSW 12.7 mph - N/A   Clear
6:53 PM 46.0 °F 39.9 °F 32.0 °F 58% 29.78 in 10.0 mi SW 13.8 mph - N/A   Clear
7:53 PM 42.1 °F 35.7 °F 32.0 °F 67% 29.78 in 10.0 mi WSW 11.5 mph - N/A   Mostly Cloudy
8:53 PM 41.0 °F 33.5 °F 32.0 °F 70% 29.76 in 10.0 mi WSW 13.8 mph - N/A   Partly Cloudy
9:53 PM 39.0 °F 31.0 °F 32.0 °F 76% 29.76 in 10.0 mi West 13.8 mph - N/A   Partly Cloudy
10:53 PM 39.9 °F 32.1 °F 30.9 °F 70% 29.77 in 10.0 mi WNW 13.8 mph - N/A   Partly Cloudy
11:53 PM 39.9 °F 31.1 °F 30.0 °F 68% 29.81 in 10.0 mi NNW 17.3 mph - N/A   Clear